FW5176 Weather Reports


time (UTC)temp
C
wind
direction
speed
KPH
gust
KPH
rain 1hr
cm
rain 24hr
cm
rain mn
cm
humidity
%
barometer
mb
20260504044502 5 359 0.0 3.2 0.00 0.00 0.00 67 1015.0
20260504043100 5 359 0.0 4.8 0.00 0.00 0.00 68 1014.9
20260504041555 4 359 0.0 1.6 0.00 0.00 0.00 70 1014.9
20260504040051 4 359 0.0 0.0 0.00 0.00 0.00 69 1015.0
20260504034607 4 359 0.0 0.0 0.00 0.00 0.00 67 1014.8
20260504033050 5 359 0.0 0.0 0.00 0.00 0.00 66 1014.8
20260504031551 5 359 0.0 1.6 0.00 0.00 0.00 65 1014.9
20260504030050 6 75 0.0 6.4 0.00 0.00 0.00 63 1014.9
20260504024551 6 281 0.0 1.6 0.00 0.00 0.00 62 1015.0
20260504023051 6 339 0.0 3.2 0.00 0.00 0.00 62 1015.0
20260504021553 6 346 0.0 0.0 0.00 0.00 0.00 62 1015.1
20260504020050 6 346 0.0 0.0 0.00 0.00 0.00 62 1015.0
20260504014603 6 345 0.0 0.0 0.00 0.00 0.00 59 1015.0
20260504013053 7 346 0.0 1.6 0.00 0.00 0.00 58 1014.8
20260504011558 7 345 0.0 1.6 0.00 0.00 0.00 54 1014.8
20260504010057 7 349 0.0 4.8 0.00 0.00 0.00 54 1014.8
20260504004546 8 359 0.0 1.6 0.00 0.00 0.00 52 1014.7
20260504003051 8 359 0.0 3.2 0.00 0.00 0.00 52 1014.6
20260504001545 8 359 0.0 3.2 0.00 0.00 0.00 50 1014.6
20260504000047 8 359 1.6 8.0 0.00 0.00 0.00 49 1014.5
20260503234551 9 359 0.0 3.2 0.00 0.00 0.00 49 1014.4
20260503233048 10 359 0.0 3.2 0.00 0.00 0.00 47 1014.4
20260503231548 10 359 0.0 4.8 0.00 0.00 0.00 46 1014.2
20260503230048 10 359 0.0 11.3 0.00 0.00 0.00 47 1014.2
20260503224542 10 314 0.0 4.8 0.00 0.00 0.00 47 1014.4
20260503223042 10 76 1.6 9.7 0.00 0.00 0.00 45 1014.4
20260503221541 10 125 0.0 8.0 0.00 0.00 0.00 45 1014.4
20260503220048 10 180 0.0 12.9 0.00 0.00 0.00 45 1014.4
20260503214542 10 176 1.6 11.3 0.00 0.00 0.00 44 1014.3
20260503213045 10 246 1.6 14.5 0.00 0.00 0.00 44 1014.1
20260503211540 10 158 1.6 14.5 0.00 0.00 0.00 43 1014.3
20260503210040 10 269 1.6 19.3 0.00 0.00 0.00 43 1014.2
20260503204547 10 231 0.0 8.0 0.00 0.00 0.00 44 1014.4
20260503203052 10 272 0.0 9.7 0.00 0.00 0.00 46 1014.2
20260503201545 11 275 0.0 6.4 0.00 0.00 0.00 45 1014.3
20260503200048 10 285 1.6 8.0 0.00 0.00 0.00 45 1014.4
20260503194542 10 249 1.6 12.9 0.00 0.00 0.00 46 1014.7
20260503193046 10 228 3.2 12.9 0.00 0.00 0.00 46 1015.1
20260503191538 10 266 0.0 16.1 0.00 0.00 0.00 46 1015.1
20260503190036 10 275 1.6 11.3 0.00 0.00 0.00 45 1015.2
20260503184537 10 266 0.0 14.5 0.00 0.00 0.00 44 1015.1
20260503183051 10 262 3.2 14.5 0.00 0.00 0.00 44 1015.1
20260503181532 10 314 4.8 16.1 0.00 0.00 0.00 44 1015.4
20260503180033 10 274 1.6 9.7 0.00 0.00 0.00 45 1015.4
20260503174532 10 282 1.6 14.5 0.00 0.00 0.00 43 1015.4
20260503173031 10 303 4.8 14.5 0.00 0.00 0.00 42 1015.5
20260503171528 10 264 1.6 11.3 0.00 0.00 0.00 43 1015.7
20260503081529 0 359 0.0 3.2 0.00 0.00 0.00 84 1015.8
20260503071520 0 359 0.0 4.8 0.00 0.00 0.00 83 1015.7
20260503053013 0 359 0.0 3.2 0.00 0.00 0.00 85 1016.0
20260503051507 0 359 0.0 1.6 0.00 0.00 0.00 85 1016.2
20260503050020 0 359 0.0 0.0 0.00 0.00 0.00 84 1016.4